Observations
| Time | Sensor | AQI | SAQ | Temp °C | Hum % | Pres Pa | CO μg/m³ | H₂S μg/m³ | NO μg/m³ | NO₂ μg/m³ | O₃ μg/m³ | SO₂ μg/m³ | CO₂e PPM | VOC PPM | PM1 μg/m³ | PM2.5 μg/m³ | PM4 μg/m³ | PM10 μg/m³ | TPS µm |
|---|---|---|---|---|---|---|---|---|---|---|---|---|---|---|---|---|---|---|---|
| Wednesday 12 August 2026 | |||||||||||||||||||
| 16:20 | Trim Market St | 3 | 40.4 | 25 | 67,191 | 0 | 0 | 0 | 13.69 | 92.64 | 4.38 | 0.71 | 5.16 | 5.68 | |||||
| 16:20 | Trim Patrick St | 3 | 38.1 | 30 | 69,797 | 0 | 0 | 0 | 12.76 | 132.9 | 25.77 | 3.71 | 10.12 | 11.13 | |||||
| 16:19 | Trim Market St | 3 | 40.5 | 25 | 67,198 | 0 | 0 | 0 | 28.22 | 65.82 | 1.8 | 2.85 | 5.72 | 6.63 | |||||
| 16:19 | Trim Patrick St | 3 | 38.2 | 29 | 69,810 | 0 | 7 | 0 | 13.26 | 137.16 | 25.75 | 3.71 | 10.17 | 11.18 | |||||
| 16:18 | Trim Market St | 3 | 40.6 | 25 | 67,204 | 0 | 0 | 0 | 73.29 | 25.37 | 0 | 2.14 | 5.17 | 5.69 | |||||
| 16:18 | Trim Patrick St | 3 | 38.4 | 29 | 69,822 | 0 | 0 | 0 | 13.15 | 170.89 | 25.77 | 3.71 | 9.37 | 10.31 | |||||
| 16:17 | Trim Market St | 3 | 40.8 | 25 | 67,239 | 0 | 0 | 0 | 15.74 | 67.8 | 3.91 | 2.85 | 6.27 | 6.9 | |||||
| 16:17 | Trim Patrick St | 3 | 38.6 | 29 | 69,812 | 0 | 0 | 0 | 10.97 | 108.14 | 26.69 | 3.71 | 9.36 | 10.3 | |||||
| 16:16 | Trim Market St | 3 | 40.9 | 25 | 67,257 | 0 | 0 | 0 | 13.86 | 95.27 | 5.06 | 2.14 | 5.18 | 5.7 | |||||
| 16:16 | Trim Patrick St | 3 | 38.8 | 29 | 69,830 | 0 | 0 | 0 | 9.99 | 79.65 | 25.05 | 3.71 | 10.17 | 11.18 | |||||
| 16:15 | Trim Market St | 3 | 41.1 | 25 | 67,243 | 0 | 0 | 0 | 13.84 | 105.85 | 5.09 | 1.43 | 5.19 | 5.71 | |||||
| 16:15 | Trim Patrick St | 3 | 38.9 | 29 | 69,850 | 0 | 0 | 0 | 12.49 | 137.83 | 27 | 3.71 | 9.37 | 10.3 | |||||
| 16:14 | Trim Market St | 3 | 41.3 | 24 | 67,253 | 0 | 0 | 0 | 13.89 | 120.35 | 5.41 | 1.43 | 4.65 | 4.83 | |||||
| 16:14 | Trim Patrick St | 3 | 39.1 | 28 | 69,844 | 0 | 0 | 0 | 12.33 | 96.51 | 25.37 | 3.71 | 11.02 | 12.12 | |||||
| 16:13 | Trim Market St | 3 | 41.4 | 24 | 67,264 | 0 | 0 | 0 | 13.92 | 82.77 | 4.7 | 2.14 | 4.66 | 4.83 | |||||
| 16:13 | Trim Patrick St | 3 | 39.3 | 28 | 69,865 | 0 | 0 | 0 | 13.2 | 139.36 | 26.78 | 3.71 | 10.23 | 11.25 | |||||
| 16:12 | Trim Patrick St | 3 | 39.5 | 28 | 69,860 | 0 | 0 | 0 | 12.84 | 120.95 | 26.98 | 4.57 | 11.05 | 12.15 | |||||
| 16:11 | Trim Patrick St | 3 | 39.7 | 28 | 69,852 | 0 | 0 | 0 | 12.81 | 130.36 | 27.41 | 2.86 | 9.43 | 10.38 | |||||
| 16:10 | Trim Patrick St | 3 | 39.8 | 28 | 69,869 | 0 | 0 | 0 | 8.48 | 74.49 | 25.47 | 3.71 | 10.26 | 11.28 | |||||
| 16:09 | Trim Patrick St | 3 | 39.9 | 28 | 69,897 | 0 | 0 | 0 | 12.48 | 90.79 | 25.72 | 3.71 | 9.43 | 10.38 | |||||